User: anonymous   Login
Location: Mentone
(34.5413°N, 85.5351°W)
Time: 02:45:15
(UTC-05:00)
Language:

S-56A Canister/Altair - Orbit

View from above orbital plane
View from above orbital plane
View from above satellite
View from above satellite

Ground track
Ground track

The orbit data is extracted from the following two-line orbital elements,

1    82U 61004B   18175.90401321 +.00000144 +00000-0 +14598-3 0  9992
2    82 038.8600 357.4540 1175813 191.7708 165.3060 12.25959274719008
Epoch (UTC): 24 June 2018 21:41:46
Eccentricity: 0.1175813
inclination: 38.8600°
perigee height: 632 km
apogee height: 2501 km
right ascension of ascending node: 357.4540°
argument of perigee: 191.7708°
revolutions per day: 12.25959274
mean anomaly at epoch: 165.3060°
orbit number at epoch: 71900

The dashed part of the orbit path shows where the satellite is in the earth's shadow,  

DLR